Hourly Data Report for November 23, 2004

SHERBROOKE A
QUEBEC

45°26'00.000" N
71°41'00.000" W
241.40 m
7028124
71610
YSC

Download Data

Hourly Data (November 2004)
Hourly Data Report for November 23, 2004
TIME
LST
Temp Definition
°C
Dew Point Definition
°C
Rel Hum Definition
%
Precip. Amount Definition
mm

Wind Dir Definition
10's deg

Wind Spd Definition
km/h
Visibility Definition
km
Stn Press Definition
kPa
Hmdx Definition


Wind Chill Definition


Weather Definition


00:00 -2.0 -3.5 89     0 12.9 98.88      
01:00 -3.1 -4.7 89   12 4 8.0 98.87   -5  
02:00 -3.6 -5.1 89   36 4 5.6 98.90   -5  
03:00 -4.0 -5.6 89     0 9.7 98.95      
04:00 -4.5 -5.9 90   9 4 11.3 98.95   -6  
05:00 -4.3 -5.8 89   10 4 12.9 98.97   -6  
06:00 -4.8 -6.3 89   9 6 12.9 98.97   -8  
07:00 -3.9 -5.4 89   9 6 12.9 98.99   -7  
08:00 -2.3 -4.0 88   7 6 24.1 99.02   -5 Mainly Clear
09:00 -0.5 -2.1 89   5 4 24.1 99.02   -2 Mainly Clear
10:00 2.0 -0.6 83     0 24.1 99.00     Mainly Clear
11:00 5.8 0.2 67   23 6 24.1 98.91     Mainly Clear
12:00 7.3 -2.0 52   18 13 24.1 98.82     Mainly Clear
13:00 8.6 -3.1 44   22 13 24.1 98.75     Mainly Clear
14:00 8.4 -2.9 45   18 17 24.1 98.68     Mainly Clear
15:00 7.3 -4.1 44   20 11 24.1 98.66     Mainly Clear
16:00 5.4 -3.5 53   18 4 24.1 98.68     Mainly Clear
17:00 3.1 -3.2 63   14 9 19.3 98.68     Mostly Cloudy
18:00 2.2 -4.1 63   17 6 15.0 98.72      
19:00 2.7 -3.7 63   11 4 15.0 98.72      
20:00 1.5 -3.4 70   12 6 15.0 98.72      
21:00 3.0 -3.2 64   14 4 15.0 98.69      
22:00 5.5 -3.9 51   16 6 15.0 98.66      
23:00 6.4 -2.7 52   17 9 15.0 98.64      

Notes on Data Quality.

Legend

  • E = Estimated
  • M = Missing
  • NA = Not Available*
  • [empty] = Indicates an unobserved value
Date modified: